{"data":{"norad_id":65355,"intl_designator":"2025-190E","name":"STARLINK-34823","alt_names":[],"object_type":"PAYLOAD","status":"ACTIVE","operator":null,"country":"US","launch_date":"2025-08-28","launch_site_code":"AFETR","launch_vehicle":null,"mission":null,"orbit_class":"UNKNOWN","rcs_meters":null,"size_class":null,"mass_kg":null,"dimensions":null,"purposes":["comms"],"wikipedia_slug":null,"has_3d_model":false,"image_url":null,"decayed_at":null,"tle_current":{"epoch":"2026-05-24T12:02:07.056384Z","epoch_age_seconds":132270,"freshness":"FRESH","line1":"1 65355U 25190E   26144.50147056  .00006173  00000+0  22027-3 0  9998","line2":"2 65355  53.1580 175.9491 0000964  73.2209 286.8898 15.30215973 41365","mean_motion":15.30215973,"eccentricity":9.64e-5,"inclination_deg":53.158,"raan_deg":175.9491,"arg_perigee_deg":73.2209,"mean_anomaly_deg":286.8898,"bstar":0.00022027,"rev_number":4136,"period_min":94.104363397597,"perigee_km":474.50671879336,"apogee_km":475.82803587731,"semimajor_km":6853.3043773353,"source":"CELESTRAK","updated_at":"2026-05-25T13:38:20.765422Z"}}}